Date String (YYYY-MM-DD hh:mm:ss) UTC,Instrument flags,Ambient pressure (hPa),Sample flow (lpm),Bypass flow (lpm),Sample temperature (°C),Ambient temperature (°C),ASC tube jacket temperature (°C),LED temperature (°C),Box temperature (°C),Sample RH (%),Span deviation,Mass concentration (μg/m³),Mass concentration (μg/m³),Mass concentration (μg/m³)
DateTimeUTC,F1_M11,P_M11,Q1_M11,Q2_M11,T1_M11,T2_M11,T3_M11,T4_M11,T5_M11,U1_M11,ZSPAN_M11,X0_M11,X2_M11,X1_M11
2022-11-29 15:00:00,,0816.9,5.01,0.00,22.5,21.7,00.0,31.4,24.3,10.1,0000.0,0002.25,0001.10,0000.74
2022-11-29 15:01:00,,0816.9,5.01,0.00,22.5,21.4,00.0,31.4,24.2,10.1,0000.0,0002.35,0001.12,0000.73
2022-11-29 15:02:00,,0817.0,5.00,0.00,22.4,21.2,00.0,31.4,24.1,10.1,0000.0,0002.23,0001.09,0000.74
2022-11-29 15:03:00,,0817.1,5.01,0.00,22.4,21.1,00.0,31.4,24.1,10.1,0000.0,0002.17,0001.09,0000.74
2022-11-29 15:04:00,,0817.1,5.01,0.00,22.4,21.0,00.0,31.4,24.1,10.1,0000.0,0002.54,0001.08,0000.74
2022-11-29 15:05:00,,0817.3,5.00,0.00,22.3,20.9,00.0,31.4,24.1,10.2,0000.0,0002.93,0001.04,0000.74
2022-11-29 15:06:00,,0817.0,5.00,0.00,22.3,20.8,00.0,31.4,24.1,10.2,0000.0,0002.97,0001.06,0000.75
2022-11-29 15:07:00,,0816.9,5.01,0.00,22.3,21.1,00.0,31.3,24.1,10.2,0000.0,0003.00,0001.09,0000.75
2022-11-29 15:08:00,,0816.9,4.98,0.00,22.4,22.0,00.0,31.3,24.3,10.2,0000.0,0003.19,0001.13,0000.76
2022-11-29 15:09:00,,0816.9,5.00,0.00,22.5,22.5,00.0,31.3,24.5,10.2,0000.0,0003.21,0001.14,0000.76
2022-11-29 15:10:00,,0816.8,5.00,0.00,22.6,22.2,00.0,31.4,24.5,10.2,0000.0,0003.11,0001.13,0000.76
2022-11-29 15:11:00,,0816.9,5.00,0.00,22.5,21.9,00.0,31.4,24.4,10.2,0000.0,0003.15,0001.12,0000.76
2022-11-29 15:12:00,,0816.9,5.00,0.00,22.5,21.6,00.0,31.4,24.4,10.2,0000.0,0003.26,0001.13,0000.77
2022-11-29 15:13:00,,0817.0,5.00,0.00,22.5,21.5,00.0,31.4,24.3,10.2,0000.0,0003.34,0001.17,0000.77
2022-11-29 15:14:00,,0816.9,5.01,0.00,22.5,21.3,00.0,31.4,24.3,10.2,0000.0,0003.31,0001.17,0000.77
2022-11-29 15:15:00,,0817.0,5.00,0.00,22.5,21.2,00.0,31.4,24.3,10.2,0000.0,0003.03,0001.18,0000.78
2022-11-29 15:16:00,,0817.0,5.00,0.00,22.5,21.2,00.0,31.4,24.3,10.2,0000.0,0002.42,0001.20,0000.80
2022-11-29 15:17:00,,0817.0,5.00,0.00,22.5,21.1,00.0,31.4,24.2,10.2,0000.0,0002.43,0001.20,0000.81
2022-11-29 15:18:00,,0817.0,5.01,0.00,22.4,21.1,00.0,31.4,24.2,10.3,0000.0,0002.37,0001.17,0000.82
2022-11-29 15:19:00,,0817.0,5.00,0.00,22.4,21.1,00.0,31.4,24.2,10.3,0000.0,0002.75,0001.16,0000.83
2022-11-29 15:20:00,,0817.0,5.01,0.00,22.4,21.0,00.0,31.4,24.2,10.3,0000.0,0002.96,0001.17,0000.84
2022-11-29 15:21:00,,0817.0,5.00,0.00,22.4,21.4,00.0,31.3,24.2,10.3,0000.0,0002.99,0001.18,0000.85
2022-11-29 15:22:00,,0817.0,5.00,0.00,22.5,22.3,00.0,31.3,24.4,10.3,0000.0,0003.03,0001.20,0000.87
2022-11-29 15:23:00,,0817.0,4.99,0.00,22.6,22.7,00.0,31.3,24.6,10.2,0000.0,0003.30,0001.21,0000.88
2022-11-29 15:24:00,,0817.2,4.99,0.00,22.7,22.4,00.0,31.4,24.6,10.1,0000.0,0004.42,0001.19,0000.88
2022-11-29 15:25:00,,0817.0,5.00,0.00,22.6,22.1,00.0,31.4,24.6,10.1,0000.0,0004.42,0001.19,0000.90
2022-11-29 15:26:00,,0817.1,5.00,0.00,22.6,21.8,00.0,31.5,24.5,10.1,0000.0,0004.41,0001.18,0000.89
2022-11-29 15:27:00,,0817.1,5.01,0.00,22.6,21.6,00.0,31.5,24.4,10.1,0000.0,0004.42,0001.19,0000.90
2022-11-29 15:28:00,,0817.1,5.01,0.00,22.6,21.5,00.0,31.5,24.4,10.1,0000.0,0004.56,0001.21,0000.89
2022-11-29 15:29:00,,0817.1,5.00,0.00,22.6,21.4,00.0,31.5,24.3,10.2,0000.0,0004.55,0001.21,0000.90
2022-11-29 15:30:00,,0817.2,4.98,0.00,22.6,21.2,00.0,31.5,24.3,10.2,0000.0,0004.22,0001.18,0000.89
2022-11-29 15:31:00,,0817.2,5.00,0.00,22.5,21.2,00.0,31.5,24.3,10.2,0000.0,0003.66,0001.16,0000.88
2022-11-29 15:32:00,,0817.2,5.00,0.00,22.5,21.1,00.0,31.5,24.3,10.2,0000.0,0003.62,0001.14,0000.87
2022-11-29 15:33:00,,0817.2,5.00,0.00,22.5,21.0,00.0,31.5,24.3,10.3,0000.0,0003.59,0001.15,0000.88
2022-11-29 15:34:00,,0817.2,5.01,0.00,22.5,21.0,00.0,31.4,24.2,10.3,0000.0,0003.49,0001.14,0000.89
2022-11-29 15:35:00,,0817.2,5.01,0.00,22.5,21.5,00.0,31.4,24.3,10.3,0000.0,0002.30,0001.16,0000.91
2022-11-29 15:36:00,,0817.2,5.01,0.00,22.6,22.4,00.0,31.4,24.5,10.3,0000.0,0002.21,0001.20,0000.91
2022-11-29 15:37:00,,0817.2,4.98,0.00,22.7,22.6,00.0,31.4,24.6,10.3,0000.0,0002.28,0001.25,0000.94
2022-11-29 15:38:00,,0817.2,4.99,0.00,22.7,22.2,00.0,31.5,24.6,10.2,0000.0,0002.30,0001.26,0000.96
2022-11-29 15:39:00,,0817.2,5.00,0.00,22.6,21.9,00.0,31.5,24.5,10.3,0000.0,0002.29,0001.29,0000.98
2022-11-29 15:40:00,,0817.2,5.00,0.00,22.6,21.7,00.0,31.5,24.4,10.3,0000.0,0002.31,0001.33,0001.00
2022-11-29 15:41:00,,0817.2,5.02,0.00,22.6,21.5,00.0,31.5,24.4,10.3,0000.0,0002.47,0001.36,0001.02
2022-11-29 15:42:00,,0817.3,4.98,0.00,22.6,21.4,00.0,31.5,24.4,10.4,0000.0,0003.67,0001.40,0001.04
2022-11-29 15:43:00,,0817.3,4.99,0.00,22.6,21.3,00.0,31.5,24.4,10.4,0000.0,0003.65,0001.40,0001.04
2022-11-29 15:44:00,,0817.3,5.01,0.00,22.6,21.2,00.0,31.5,24.4,10.4,0000.0,0003.62,0001.38,0001.03
2022-11-29 15:45:00,,0817.3,4.99,0.00,22.6,21.2,00.0,31.5,24.3,10.4,0000.0,0003.59,0001.36,0001.02
2022-11-29 15:46:00,,0817.3,4.99,0.00,22.5,21.1,00.0,31.5,24.3,10.4,0000.0,0003.35,0001.34,0001.01
2022-11-29 15:47:00,,0817.4,5.01,0.00,22.5,21.1,00.0,31.5,24.3,10.4,0000.0,0003.25,0001.30,0001.00
2022-11-29 15:48:00,,0817.4,5.01,0.00,22.5,21.1,00.0,31.5,24.3,10.5,0000.0,0003.23,0001.29,0000.98
2022-11-29 15:49:00,,0817.3,5.01,0.00,22.5,21.6,00.0,31.4,24.4,10.5,0000.0,0003.55,0001.24,0000.96
2022-11-29 15:50:00,,0817.4,4.99,0.00,22.6,22.5,00.0,31.4,24.6,10.4,0000.0,0003.95,0001.20,0000.94
2022-11-29 15:51:00,,0817.4,5.00,0.00,22.7,22.5,00.0,31.5,24.7,10.4,0000.0,0003.88,0001.16,0000.92
2022-11-29 15:52:00,,0817.3,5.00,0.00,22.7,22.2,00.0,31.5,24.6,10.4,0000.0,0003.83,0001.13,0000.91
2022-11-29 15:53:00,,0817.4,5.00,0.00,22.7,22.0,00.0,31.5,24.6,10.4,0000.0,0002.79,0001.10,0000.90
2022-11-29 15:54:00,,0817.4,5.00,0.00,22.7,21.7,00.0,31.5,24.5,10.4,0000.0,0002.61,0001.09,0000.90
2022-11-29 15:55:00,,0817.4,5.00,0.00,22.7,21.6,00.0,31.6,24.5,10.4,0000.0,0002.61,0001.10,0000.90
2022-11-29 15:56:00,,0817.4,5.00,0.00,22.6,21.5,00.0,31.6,24.4,10.4,0000.0,0002.63,0001.11,0000.91
2022-11-29 15:57:00,,0817.4,4.99,0.00,22.6,21.4,00.0,31.5,24.4,10.4,0000.0,0002.66,0001.12,0000.91
2022-11-29 15:58:00,,0817.5,5.00,0.00,22.6,21.3,00.0,31.5,24.4,10.5,0000.0,0002.63,0001.11,0000.91
2022-11-29 15:59:00,,0817.5,5.01,0.00,22.6,21.2,00.0,31.5,24.4,10.5,0000.0,0002.60,0001.09,0000.91
